Time,TemperatureF,DewpointF,PressureIn,WindDirection,WindDirectionDegrees,WindSpeedMPH,WindSpeedGustMPH,Humidity,HourlyPrecipIn,Conditions,Clouds,dailyrainin,SoftwareType,DateUTC
2013-04-25 00:02:00,58.0,56.0,30.18,WSW,248,0.0,0.0,92,0.00,,,0.00,weatherlink.com 1.10,2013-04-25 04:02:00,
2013-04-25 00:17:00,57.6,56.0,30.18,NNE,20,1.0,2.0,93,0.00,,,0.00,weatherlink.com 1.10,2013-04-25 04:17:00,
2013-04-25 00:32:00,55.7,52.0,30.19,ENE,63,2.0,4.0,86,0.00,,,0.00,weatherlink.com 1.10,2013-04-25 04:32:00,
2013-04-25 00:47:00,54.1,50.0,30.20,SE,130,0.0,4.0,87,0.00,,,0.00,weatherlink.com 1.10,2013-04-25 04:47:00,
2013-04-25 01:02:00,53.4,49.0,30.20,NNE,21,0.0,3.0,86,0.00,,,0.00,weatherlink.com 1.10,2013-04-25 05:02:00,
2013-04-25 01:17:00,52.6,49.0,30.20,WSW,243,0.0,2.0,86,0.00,,,0.00,weatherlink.com 1.10,2013-04-25 05:17:00,
2013-04-25 01:32:00,51.7,48.0,30.20,East,98,0.0,2.0,86,0.00,,,0.00,weatherlink.com 1.10,2013-04-25 05:32:00,
2013-04-25 01:47:00,50.9,47.0,30.20,SSW,205,0.0,2.0,86,0.00,,,0.00,weatherlink.com 1.10,2013-04-25 05:47:00,
2013-04-25 02:02:00,50.4,46.0,30.20,NNE,31,0.0,2.0,86,0.00,,,0.00,weatherlink.com 1.10,2013-04-25 06:02:00,
2013-04-25 02:17:00,49.8,46.0,30.21,WNW,290,0.0,1.0,86,0.00,,,0.00,weatherlink.com 1.10,2013-04-25 06:17:00,
2013-04-25 02:32:00,48.7,45.0,30.20,WNW,285,0.0,2.0,87,0.00,,,0.00,weatherlink.com 1.10,2013-04-25 06:32:00,
2013-04-25 02:47:00,47.6,45.0,30.20,SE,128,1.0,1.0,89,0.00,,,0.00,weatherlink.com 1.10,2013-04-25 06:47:00,
2013-04-25 03:02:00,46.8,44.0,30.20,NE,47,0.0,2.0,89,0.00,,,0.00,weatherlink.com 1.10,2013-04-25 07:02:00,
2013-04-25 03:18:00,46.1,43.0,30.20,NW,305,0.0,1.0,90,0.00,,,0.00,weatherlink.com 1.10,2013-04-25 07:18:00,
2013-04-25 03:33:00,45.5,43.0,30.21,WNW,303,0.0,0.0,91,0.00,,,0.00,weatherlink.com 1.10,2013-04-25 07:33:00,
2013-04-25 03:48:00,45.9,43.0,30.22,ENE,77,0.0,4.0,90,0.00,,,0.00,weatherlink.com 1.10,2013-04-25 07:48:00,
2013-04-25 04:03:00,46.5,44.0,30.22,ENE,66,1.0,3.0,89,0.00,,,0.00,weatherlink.com 1.10,2013-04-25 08:03:00,
2013-04-25 04:18:00,46.5,43.0,30.23,SE,143,1.0,3.0,87,0.00,,,0.00,weatherlink.com 1.10,2013-04-25 08:18:00,
2013-04-25 04:33:00,45.8,42.0,30.23,ENE,65,2.0,7.0,87,0.00,,,0.00,weatherlink.com 1.10,2013-04-25 08:33:00,
2013-04-25 04:48:00,45.1,42.0,30.24,ENE,66,2.0,5.0,88,0.00,,,0.00,weatherlink.com 1.10,2013-04-25 08:48:00,
2013-04-25 05:03:00,44.8,41.0,30.24,ENE,70,2.0,5.0,87,0.00,,,0.00,weatherlink.com 1.10,2013-04-25 09:03:00,
2013-04-25 05:18:00,44.4,41.0,30.24,ESE,110,1.0,4.0,87,0.00,,,0.00,weatherlink.com 1.10,2013-04-25 09:18:00,
2013-04-25 05:33:00,43.9,41.0,30.25,ENE,63,1.0,3.0,88,0.00,,,0.00,weatherlink.com 1.10,2013-04-25 09:33:00,
2013-04-25 05:48:00,43.3,40.0,30.25,East,82,0.0,4.0,88,0.00,,,0.00,weatherlink.com 1.10,2013-04-25 09:48:00,
2013-04-25 06:03:00,42.9,40.0,30.26,NNE,29,2.0,4.0,88,0.00,,,0.00,weatherlink.com 1.10,2013-04-25 10:03:00,
2013-04-25 06:18:00,42.3,39.0,30.27,NNE,27,0.0,2.0,89,0.00,,,0.00,weatherlink.com 1.10,2013-04-25 10:18:00,
2013-04-25 06:33:00,41.7,39.0,30.27,NE,53,0.0,2.0,90,0.00,,,0.00,weatherlink.com 1.10,2013-04-25 10:33:00,
2013-04-25 06:48:00,41.4,39.0,30.28,WSW,257,0.0,2.0,90,0.00,,,0.00,weatherlink.com 1.10,2013-04-25 10:48:00,
2013-04-25 07:03:00,41.1,38.0,30.28,South,169,0.0,3.0,89,0.00,,,0.00,weatherlink.com 1.10,2013-04-25 11:03:00,
2013-04-25 07:18:00,41.2,38.0,30.29,SE,126,0.0,4.0,88,0.00,,,0.00,weatherlink.com 1.10,2013-04-25 11:18:00,
2013-04-25 07:33:00,41.4,38.0,30.30,SE,135,0.0,3.0,86,0.00,,,0.00,weatherlink.com 1.10,2013-04-25 11:33:00,
2013-04-25 07:48:00,41.9,38.0,30.30,ENE,58,4.0,4.0,86,0.00,,,0.00,weatherlink.com 1.10,2013-04-25 11:48:00,
2013-04-25 08:03:00,43.7,38.0,30.30,SSW,198,0.0,4.0,81,0.00,,,0.00,weatherlink.com 1.10,2013-04-25 12:03:00,
2013-04-25 08:18:00,45.2,38.0,30.31,SW,229,2.0,6.0,77,0.00,,,0.00,weatherlink.com 1.10,2013-04-25 12:18:00,
2013-04-25 08:33:00,46.9,39.0,30.31,NE,45,4.0,5.0,74,0.00,,,0.00,weatherlink.com 1.10,2013-04-25 12:33:00,
2013-04-25 08:48:00,48.2,39.0,30.32,SE,124,3.0,7.0,71,0.00,,,0.00,weatherlink.com 1.10,2013-04-25 12:48:00,
2013-04-25 09:03:00,49.2,40.0,30.32,ESE,117,1.0,3.0,70,0.00,,,0.00,weatherlink.com 1.10,2013-04-25 13:03:00,
2013-04-25 09:18:00,49.2,39.0,30.32,North,356,0.0,6.0,67,0.00,,,0.00,weatherlink.com 1.10,2013-04-25 13:18:00,
2013-04-25 09:33:00,50.2,39.0,30.31,ENE,60,1.0,5.0,65,0.00,,,0.00,weatherlink.com 1.10,2013-04-25 13:33:00,
2013-04-25 09:48:00,52.1,39.0,30.31,SSE,160,1.0,4.0,61,0.00,,,0.00,weatherlink.com 1.10,2013-04-25 13:48:00,
2013-04-25 10:04:00,53.1,37.0,30.31,SE,127,3.0,5.0,55,0.00,,,0.00,weatherlink.com 1.10,2013-04-25 14:04:00,
2013-04-25 10:19:00,54.7,38.0,30.31,SE,126,2.0,2.0,54,0.00,,,0.00,weatherlink.com 1.10,2013-04-25 14:19:00,
2013-04-25 10:34:00,56.7,38.0,30.32,ENE,77,3.0,3.0,50,0.00,,,0.00,weatherlink.com 1.10,2013-04-25 14:34:00,
2013-04-25 10:49:00,57.1,37.0,30.32,NNE,33,1.0,6.0,47,0.00,,,0.00,weatherlink.com 1.10,2013-04-25 14:49:00,
2013-04-25 11:04:00,58.8,37.0,30.32,ENE,77,2.0,5.0,44,0.00,,,0.00,weatherlink.com 1.10,2013-04-25 15:04:00,
2013-04-25 11:19:00,59.8,35.0,30.32,SSW,198,0.0,5.0,40,0.00,,,0.00,weatherlink.com 1.10,2013-04-25 15:19:00,
2013-04-25 11:34:00,62.5,37.0,30.33,SSW,210,0.0,3.0,39,0.00,,,0.00,weatherlink.com 1.10,2013-04-25 15:34:00,
2013-04-25 11:49:00,62.8,30.0,30.32,NE,48,0.0,3.0,29,0.00,,,0.00,weatherlink.com 1.10,2013-04-25 15:49:00,
2013-04-25 12:04:00,64.1,28.0,30.32,SSW,197,0.0,5.0,26,0.00,,,0.00,weatherlink.com 1.10,2013-04-25 16:04:00,
2013-04-25 12:19:00,65.1,37.0,30.32,East,91,0.0,4.0,36,0.00,,,0.00,weatherlink.com 1.10,2013-04-25 16:19:00,
2013-04-25 12:34:00,65.1,29.0,30.32,NE,36,4.0,6.0,26,0.00,,,0.00,weatherlink.com 1.10,2013-04-25 16:34:00,
2013-04-25 12:49:00,65.5,27.0,30.32,ESE,118,1.0,5.0,23,0.00,,,0.00,weatherlink.com 1.10,2013-04-25 16:49:00,
2013-04-25 13:04:00,66.1,35.0,30.32,NNE,16,0.0,5.0,32,0.00,,,0.00,weatherlink.com 1.10,2013-04-25 17:04:00,
2013-04-25 13:19:00,67.4,36.0,30.32,ENE,58,3.0,9.0,31,0.00,,,0.00,weatherlink.com 1.10,2013-04-25 17:19:00,
2013-04-25 13:34:00,68.1,34.0,30.31,East,101,1.0,5.0,28,0.00,,,0.00,weatherlink.com 1.10,2013-04-25 17:34:00,
2013-04-25 13:49:00,67.3,32.0,30.31,SE,146,5.0,8.0,27,0.00,,,0.00,weatherlink.com 1.10,2013-04-25 17:49:00,
2013-04-25 14:04:00,67.0,28.0,30.31,NE,50,2.0,7.0,23,0.00,,,0.00,weatherlink.com 1.10,2013-04-25 18:04:00,
2013-04-25 14:19:00,67.6,28.0,30.31,ENE,72,3.0,7.0,23,0.00,,,0.00,weatherlink.com 1.10,2013-04-25 18:19:00,
2013-04-25 14:34:00,68.1,31.0,30.31,NNW,344,2.0,4.0,25,0.00,,,0.00,weatherlink.com 1.10,2013-04-25 18:34:00,
2013-04-25 14:49:00,69.4,31.0,30.30,West,266,1.0,4.0,24,0.00,,,0.00,weatherlink.com 1.10,2013-04-25 18:49:00,
2013-04-25 15:04:00,68.8,29.0,30.30,East,83,0.0,6.0,23,0.00,,,0.00,weatherlink.com 1.10,2013-04-25 19:04:00,
2013-04-25 15:19:00,69.2,28.0,30.29,ENE,66,6.0,10.0,21,0.00,,,0.00,weatherlink.com 1.10,2013-04-25 19:19:00,
2013-04-25 15:34:00,70.0,34.0,30.29,NE,38,6.0,6.0,27,0.00,,,0.00,weatherlink.com 1.10,2013-04-25 19:34:00,
2013-04-25 15:49:00,69.4,28.0,30.28,ESE,122,3.0,6.0,21,0.00,,,0.00,weatherlink.com 1.10,2013-04-25 19:49:00,
2013-04-25 16:04:00,69.6,33.0,30.28,NE,40,1.0,8.0,26,0.00,,,0.00,weatherlink.com 1.10,2013-04-25 20:04:00,
2013-04-25 16:19:00,68.7,30.0,30.28,NNE,33,5.0,8.0,24,0.00,,,0.00,weatherlink.com 1.10,2013-04-25 20:19:00,
2013-04-25 16:34:00,68.6,31.0,30.28,NNE,21,3.0,6.0,25,0.00,,,0.00,weatherlink.com 1.10,2013-04-25 20:34:00,
2013-04-25 16:49:00,68.0,30.0,30.28,NE,42,4.0,8.0,24,0.00,,,0.00,weatherlink.com 1.10,2013-04-25 20:49:00,
2013-04-25 17:04:00,66.8,29.0,30.28,NE,39,7.0,9.0,24,0.00,,,0.00,weatherlink.com 1.10,2013-04-25 21:04:00,
2013-04-25 17:19:00,66.9,28.0,30.28,ENE,75,2.0,7.0,23,0.00,,,0.00,weatherlink.com 1.10,2013-04-25 21:19:00,
2013-04-25 17:34:00,66.6,28.0,30.29,East,97,2.0,7.0,23,0.00,,,0.00,weatherlink.com 1.10,2013-04-25 21:34:00,
2013-04-25 17:49:00,66.2,28.0,30.29,ESE,115,4.0,7.0,24,0.00,,,0.00,weatherlink.com 1.10,2013-04-25 21:49:00,
2013-04-25 18:04:00,65.8,27.0,30.30,WSW,240,1.0,8.0,23,0.00,,,0.00,weatherlink.com 1.10,2013-04-25 22:04:00,
2013-04-25 18:19:00,65.7,28.0,30.30,NE,45,1.0,4.0,24,0.00,,,0.00,weatherlink.com 1.10,2013-04-25 22:19:00,
2013-04-25 18:34:00,65.4,28.0,30.30,ENE,70,1.0,4.0,24,0.00,,,0.00,weatherlink.com 1.10,2013-04-25 22:34:00,
2013-04-25 18:49:00,65.0,27.0,30.31,NNE,13,4.0,5.0,24,0.00,,,0.00,weatherlink.com 1.10,2013-04-25 22:49:00,
2013-04-25 19:04:00,64.0,27.0,30.31,NE,53,2.0,5.0,25,0.00,,,0.00,weatherlink.com 1.10,2013-04-25 23:04:00,
2013-04-25 19:19:00,63.4,28.0,30.32,South,181,4.0,7.0,26,0.00,,,0.00,weatherlink.com 1.10,2013-04-25 23:19:00,
2013-04-25 19:34:00,62.2,28.0,30.32,ESE,120,0.0,2.0,27,0.00,,,0.00,weatherlink.com 1.10,2013-04-25 23:34:00,
2013-04-25 19:49:00,60.9,27.0,30.33,NNE,18,1.0,4.0,28,0.00,,,0.00,weatherlink.com 1.10,2013-04-25 23:49:00,
2013-04-25 20:04:00,59.6,28.0,30.34,ESE,122,0.0,4.0,30,0.00,,,0.00,weatherlink.com 1.10,2013-04-26 00:04:00,
2013-04-25 20:19:00,57.7,28.0,30.34,SW,214,0.0,1.0,32,0.00,,,0.00,weatherlink.com 1.10,2013-04-26 00:19:00,
2013-04-25 20:34:00,56.8,27.0,30.34,WSW,246,0.0,2.0,32,0.00,,,0.00,weatherlink.com 1.10,2013-04-26 00:34:00,
2013-04-25 20:49:00,55.4,27.0,30.35,NE,50,0.0,1.0,34,0.00,,,0.00,weatherlink.com 1.10,2013-04-26 00:49:00,
2013-04-25 21:04:00,53.8,28.0,30.35,NE,49,0.0,1.0,37,0.00,,,0.00,weatherlink.com 1.10,2013-04-26 01:04:00,
2013-04-25 21:20:00,52.7,28.0,30.36,NNE,31,0.0,0.0,39,0.00,,,0.00,weatherlink.com 1.10,2013-04-26 01:20:00,
2013-04-25 21:35:00,51.7,28.0,30.37,NNE,31,0.0,1.0,40,0.00,,,0.00,weatherlink.com 1.10,2013-04-26 01:35:00,
2013-04-25 21:50:00,50.7,29.0,30.38,NE,37,0.0,1.0,44,0.00,,,0.00,weatherlink.com 1.10,2013-04-26 01:50:00,
2013-04-25 22:05:00,49.9,28.0,30.38,NW,321,0.0,1.0,43,0.00,,,0.00,weatherlink.com 1.10,2013-04-26 02:05:00,
2013-04-25 22:20:00,48.7,28.0,30.39,NW,324,0.0,0.0,45,0.00,,,0.00,weatherlink.com 1.10,2013-04-26 02:20:00,
2013-04-25 22:35:00,48.1,31.0,30.39,NW,323,0.0,1.0,53,0.00,,,0.00,weatherlink.com 1.10,2013-04-26 02:35:00,
2013-04-25 22:50:00,47.4,32.0,30.40,NW,323,0.0,1.0,56,0.00,,,0.00,weatherlink.com 1.10,2013-04-26 02:50:00,
2013-04-25 23:05:00,46.5,33.0,30.40,NW,323,0.0,1.0,59,0.00,,,0.00,weatherlink.com 1.10,2013-04-26 03:05:00,
2013-04-25 23:20:00,45.6,32.0,30.40,NW,323,0.0,1.0,59,0.00,,,0.00,weatherlink.com 1.10,2013-04-26 03:20:00,
2013-04-25 23:35:00,44.8,32.0,30.41,NW,323,0.0,1.0,61,0.00,,,0.00,weatherlink.com 1.10,2013-04-26 03:35:00,
2013-04-25 23:50:00,43.9,34.0,30.41,NW,323,0.0,1.0,67,0.00,,,0.00,weatherlink.com 1.10,2013-04-26 03:50:00,